Regional Weather Roundup
Issued by NWS

Home | Current Version | Previous Version | Graphics & Text | Print | Product List | Glossary On
Versions: 1 2 3 4 5 6 7 8 9 10 11 12 13 14 15 16 17 18 19 20 21 22 23 24 25 26 27 28 29 30 31 32 33 34 35 36 37 38 39 40 41 42 43 44 45 46 47 48 49 50
000
ASUS43 KIND 051259
RWRIN

WEATHER ROUNDUP FOR INDIANA
NATIONAL WEATHER SERVICE INDIANAPOLIS IN
900 AM EDT SAT SEP 05 2015

NOTE: "FAIR" INDICATES FEW OR NO CLOUDS BELOW 12,000 FEET WITH NO
SIGNIFICANT WEATHER AND/OR OBSTRUCTIONS TO VISIBILITY.

* - STATION DOES NOT REPORT WEATHER SUCH AS PRECIPITATION OR FOG.

+ - STATION NOT QUALITY CONTROLLED BY THE NATIONAL WEATHER SERVICE.
    USE DATA WITH CAUTION...ESPECIALLY DEWPOINT AND RELATIVE
    HUMIDITY OBSERVATIONS.

INZ001>003-010>013-019-020-051400-
NORTHWEST INDIANA

CITY           SKY/WX    TMP DP  RH WIND       PRES   REMARKS
GARY /AIRPORT/ PTSUNNY   73  64  73 S5        30.11R
RENSSELAER +   CLOUDY    70  68  94 W7        30.13F THUNDER

$$

LMZ046-743>745-051400-
SOUTHERN LAKE MICHIGAN

STATION/POSITION TIME  TEMP    WIND        PRES    WAVE
                       AIR SEA DIR/SP/G            HT
                 (UTC) (F)     (DEG/KT/KT) (MB)    (FT)
BURNS HARBOR     1200   70     190/ 11/ 15 1019.6R
MICHIGAN CITY    1200   71     150/ 11/ 14   N/A
5NW MICH CITY    1200   71 73  200/  8/ 10   N/A     1

$$

INZ004-005-014>016-021>024-051400-
NORTH CENTRAL INDIANA

CITY           SKY/WX    TMP DP  RH WIND       PRES   REMARKS
GOSHEN         MOSUNNY   71  66  84 S5        30.13R
SOUTH BEND     CLOUDY    71  65  81 SW8       30.13R

$$

INZ006>009-017-018-025>027-051400-
NORTHEAST INDIANA

CITY           SKY/WX    TMP DP  RH WIND       PRES   REMARKS
ANGOLA *+      SUNNY     70  61  73 CALM      30.14R
FORT WAYNE     PTSUNNY   69  66  90 CALM      30.15R

$$

INZ028-029-035-036-043>045-051>053-051400-
WEST CENTRAL INDIANA

CITY           SKY/WX    TMP DP  RH WIND       PRES   REMARKS
CRAWFORDSVL +  PTSUNNY   71  67  87 CALM      30.14R
GREENCASTLE +  MOSUNNY   70  63  78 CALM      30.15R
LAFAYETTE      PTSUNNY   70  65  84 CALM      30.13R
TERRE HAUTE    SUNNY     72  67  84 SE3       30.13R

$$

INZ030>032-037>040-046>048-054>057-064-065-051400-
CENTRAL INDIANA

CITY           SKY/WX    TMP DP  RH WIND       PRES   REMARKS
ANDERSON       SUNNY     66  64  94 VRB5      30.17
COLUMBUS       SUNNY     68  63  83 SE5       30.15R
FRANKFORT +    MOSUNNY  N/A N/A N/A CALM      30.15R
GREENWOOD *+   SUNNY     70  63  78 SE3       30.16R
INDIANAPOLIS   MOSUNNY   72  65  78 SE5       30.14R
-EAGLE CREEK   SUNNY     71  67  87 CALM      30.14R
KOKOMO *+      SUNNY     70  64  83 S3        30.15R
MT COMFORT *+  SUNNY     68 N/A N/A SE3       30.16R
SHELBYVILLE    MOSUNNY   70  65  84 SE5       30.15R
ZIONSVILLE +   SUNNY     69  66  90 CALM      30.15R

$$

INZ033-034-041-042-049-050-058-059-051400-
EAST CENTRAL INDIANA

CITY           SKY/WX    TMP DP  RH WIND       PRES   REMARKS
MUNCIE         PTSUNNY   67  64  90 SE6       30.16R

$$

INZ060-061-067>069-081>083-085>088-051400-
SOUTHWEST INDIANA

CITY           SKY/WX    TMP DP  RH WIND       PRES   REMARKS
EVANSVILLE     SUNNY     75  68  78 NE3       30.12R
HUNTINGBURG *+ SUNNY     72  66  83 CALM      30.13R

$$

INZ062-063-066-070>080-084-089>092-051400-
SOUTH CENTRAL AND SOUTHEAST INDIANA

CITY           SKY/WX    TMP DP  RH WIND       PRES   REMARKS
BLOOMINGTON    SUNNY     72  67  84 CALM      30.15R
MADISON *+     SUNNY     70  66  88 E5        30.17R
SEYMOUR +      SUNNY     72  66  83 E3        30.14R

$$




USA.gov is the U.S. government's official web portal to all federal, state and local government web resources and services.